Location: Heidgraben
(53.7081°N, 9.6576°E)
Time: 08:19:16
(UTC+00:00)

Cosmos 405 - Pass Details

Date: 05 July 2020
Orbit: 450 x 465 km, 81.3° (Epoch: 14 August)

Event Time Altitude Azimuth Distance (km) Brightness Sun altitude
Rises 23:21:24 0° 346° (NNW) 2,515 8.4 -13.6°
Reaches altitude 10° 23:23:30 10° 347° (NNW) 1,632 7.1 -13.6°
Maximum altitude 23:27:05 89° 74° (ENE) 472 2.9 -13.6°
Enters shadow 23:29:03 25° 167° (SSE) 983 4.0 -13.6°
